This demonstration page uses our WeatherBlox Daily Observations layout. Learn more.

Hourly Observations for November 14, 2016

Temp ( °F °C ) Dew Point ( °F °C ) Humidity (%) Winds ( mph kmh ) Pressure ( in mb ) Visibility ( mi km ) Precip ( " mm )
12:54 am 00:54 Clear 41 5 36 2.2 82 82 Calm 29.98 1015 10 16.0934 0 0
1:54 am 01:54 Clear 39 3.9 36 2.2 89 89 Calm 29.97 1015 10 16.0934 0 0
2:54 am 02:54 Clear 34 1.1 32 0 92 92 NE 3 6 29.98 1015 10 16.0934 0 0
3:54 am 03:54 Clear 39 3.9 35 1.7 86 86 Calm 29.98 1015 10 16.0934 0 0
4:54 am 04:54 Clear 36 2.2 34 1.1 93 93 Calm 30 1016 10 16.0934 0 0
5:54 am 05:54 Clear 37 2.8 34 1.1 89 89 Calm 30.01 1016 10 16.0934 0 0
6:54 am 06:54 Clear 35 1.7 32 0 89 89 Calm 30.03 1017 10 16.0934 0 0
7:54 am 07:54 Sunny 40 4.4 35 1.7 83 83 Calm 30.05 1018 10 16.0934 0 0
8:54 am 08:54 Sunny 48 8.9 41 5 77 77 N 3 6 30.06 1018 10 16.0934 0 0
9:54 am 09:54 Sunny 55 12.8 42 5.6 62 62 N 7 11 30.06 1018 10 16.0934 0 0
10:54 am 10:54 Sunny 60 15.6 42 5.6 52 52 NNW 3 6 30.06 1018 10 16.0934 0 0
11:54 am 11:54 Sunny 64 17.8 42 5.6 45 45 N 5 7 30.04 1017 10 16.0934 0 0
12:54 pm 12:54 Sunny 66 18.9 41 5 40 40 NNW 6 9 30.01 1016 10 16.0934 0 0
1:54 pm 13:54 Mostly Cloudy 68 20 41 5 38 38 N 12 19 30 1016 10 16.0934 0 0
2:54 pm 14:54 Sunny 67 19.4 40 4.4 37 37 N 10 17 29.99 1016 10 16.0934 0 0
3:54 pm 15:54 Sunny 66 18.9 40 4.4 39 39 N 7 11 29.98 1015 10 16.0934 0 0
4:54 pm 16:54 Sunny 59 15 41 5 51 51 N 5 7 29.99 1016 10 16.0934 0 0
5:54 pm 17:54 Clear 53 11.7 39 3.9 59 59 NE 5 7 30.01 1016 10 16.0934 0 0
6:54 pm 18:54 Clear 51 10.6 40 4.4 66 66 Calm 30.01 1016 10 16.0934 0 0
7:54 pm 19:54 Clear 42 5.6 36 2.2 79 79 NNW 5 7 30.02 1017 10 16.0934 0 0
8:54 pm 20:54 Clear 42 5.6 37 2.8 82 82 Calm 30.01 1016 10 16.0934 0 0
9:54 pm 21:54 Clear 38 3.3 34 1.1 86 86 NNW 3 6 30.01 1016 9 14.48406 0 0
10:54 pm 22:54 Clear 37 2.8 34 1.1 89 89 Calm 30.01 1016 10 16.0934 0 0
11:54 pm 23:54 Clear 36 2.2 33 0.6 89 89 NW 3 6 30.01 1016 10 16.0934 0 0

Powered by AerisWeather